Jefferson, NC

1:54 AM EDT on September 26, 2017 (GMT -0400)
Ashe County

Weather History for KGEV - January, 2004

Change the Weather History Date:

Wednesday, January 28, 2004

  Actual Average Record
Temperature  
Mean Temperature 20 °F -  
Max Temperature 24 °F 41 °F 67 °F (1975)
Min Temperature 15 °F 21 °F -7 °F (1986)
Degree Days  
Heating Degree Days 46    
Moisture  
Dew Point 6 °F    
Average Humidity 58    
Maximum Humidity 73    
Minimum Humidity 36    
Precipitation  
Precipitation 0.00 in - - ()
Sea Level Pressure  
Sea Level Pressure 29.84 in    
Wind  
Wind Speed 25 mph (WNW)    
Max Wind Speed 43 mph    
Max Gust Speed 68 mph    
Visibility 6 miles    
Events Snow    
Averages and records for this station are not official NWS values.
T = Trace of Precipitation, MM = Missing Value Source: NWS Daily Summary

Daily Weather History Graph

Daily Weather History Graph

Search for Another Location

Airport or City:

Trip Planner

Search our weather history database for the weather conditions in past years. The results will help you decide how hot, cold, wet, or windy it might be!

Date:

Astronomy

Jan. 28, 2004 Rise Set
Actual Time 7:30 AM EST 5:47 PM EST
Civil Twilight 7:03 AM EST 6:14 PM EST
Nautical Twilight 6:32 AM EST 6:45 PM EST
Astronomical Twilight 6:01 AM EST 7:15 PM EST
Moon 11:25 AM EST (1/28) 12:02 AM EST (1/28)
Length of Visible Light 11h 11m
Length of Day
10h 16m
Waxing Crescent, 45% of the Moon is Illuminated
Jan 28
Waxing Crescent
Jan 29
First Quarter
Feb 6
Full
Feb 13
Last Quarter
Feb 20
New

Hourly Weather History & Observations

Time (EST) Temp. Windchill Dew Point Humidity Pressure Visibility Wind Dir Wind Speed Gust Speed Precip Events Conditions
12:00 AM 17.6 °F 7.3 °F 8.6 °F 68% 29.71 in 5.0 mi North 8.1 mph 29.9 mph N/A Snow Light Snow
12:20 AM 15.8 °F -0.6 °F 6.8 °F 68% 29.70 in 10.0 mi West 18.4 mph 28.8 mph N/A   Scattered Clouds
12:43 AM 15.8 °F -3.1 °F 6.8 °F 68% 29.69 in 7.0 mi NW 25.3 mph 49.5 mph N/A   Clear
1:00 AM 15.8 °F -3.1 °F 6.8 °F 68% 29.69 in 10.0 mi WNW 25.3 mph 50.6 mph N/A   Clear
1:20 AM 15.8 °F 0.3 °F 6.8 °F 68% 29.70 in 7.0 mi West 16.1 mph 43.7 mph N/A Snow Light Snow
1:40 AM 15.8 °F -4.4 °F 6.8 °F 68% 29.69 in 4.0 mi WNW 29.9 mph 58.7 mph N/A Snow Light Snow
2:00 AM 15.8 °F -0.6 °F 6.8 °F 68% 29.71 in 4.0 mi WNW 18.4 mph 61.0 mph N/A Snow Light Snow
2:20 AM 15.8 °F -4.7 °F 6.8 °F 68% 29.70 in 3.0 mi WNW 31.1 mph 42.6 mph N/A Snow Light Snow
2:40 AM 15.8 °F -6.1 °F 6.8 °F 68% 29.67 in 4.0 mi West 36.8 mph 63.3 mph N/A Snow Light Snow
3:00 AM 15.8 °F -4.4 °F 6.8 °F 68% 29.69 in 2.5 mi WNW 29.9 mph 55.2 mph N/A Snow Light Snow
3:20 AM 15.8 °F -5.0 °F 6.8 °F 68% 29.69 in 3.0 mi WNW 32.2 mph 64.4 mph N/A Snow Light Snow
3:40 AM 15.8 °F -4.7 °F 6.8 °F 68% 29.69 in 3.0 mi WNW 31.1 mph 67.9 mph N/A Snow Light Snow
4:02 AM 15.8 °F -5.2 °F 6.8 °F 68% 29.69 in 2.5 mi WNW 33.4 mph 57.5 mph N/A Snow Light Snow
4:20 AM 15.8 °F -6.3 °F 6.8 °F 68% 29.69 in 4.0 mi WNW 38.0 mph 61.0 mph N/A Snow Light Snow
4:41 AM 15.8 °F -5.8 °F 6.8 °F 68% 29.69 in 2.0 mi WNW 35.7 mph 58.7 mph N/A Snow Light Snow
5:00 AM 15.8 °F -4.7 °F 6.8 °F 68% 29.72 in 2.0 mi NW 31.1 mph 56.4 mph N/A Snow Light Snow
5:20 AM 15.8 °F -4.7 °F 6.8 °F 68% 29.73 in 3.0 mi NW 31.1 mph 59.8 mph N/A Snow Light Snow
5:40 AM 15.8 °F -7.3 °F 6.8 °F 68% 29.72 in 2.5 mi WNW 42.6 mph 59.8 mph N/A Snow Light Snow
6:00 AM 15.8 °F -7.0 °F 6.8 °F 68% 29.72 in 2.0 mi WNW 41.4 mph 57.5 mph N/A Snow Light Snow
6:21 AM 15.8 °F -6.6 °F 6.8 °F 68% 29.71 in 1.5 mi WNW 39.1 mph 65.6 mph N/A Snow Light Snow
6:40 AM 15.8 °F -7.3 °F 6.8 °F 68% 29.76 in 1.5 mi WNW 42.6 mph 63.3 mph N/A Snow Light Snow
7:00 AM 15.8 °F -3.7 °F 8.6 °F 73% 29.78 in 1.0 mi WNW 27.6 mph 51.8 mph N/A Snow Light Snow
7:22 AM 15.8 °F -4.1 °F 8.6 °F 73% 29.80 in 1.0 mi WNW 28.8 mph 56.4 mph N/A Snow Light Snow
7:41 AM 15.8 °F -1.5 °F 8.6 °F 73% 29.82 in 0.5 mi WNW 20.7 mph 46.0 mph N/A Snow Light Snow
8:00 AM 15.8 °F -5.0 °F 8.6 °F 73% 29.80 in 0.5 mi WNW 32.2 mph 46.0 mph N/A Snow Light Snow
8:20 AM 15.8 °F -5.0 °F 6.8 °F 68% 29.82 in 1.8 mi WNW 32.2 mph 47.2 mph N/A Snow Light Snow
8:40 AM 15.8 °F -4.4 °F 6.8 °F 68% 29.84 in 1.2 mi WNW 29.9 mph 50.6 mph N/A Snow Light Snow
9:00 AM 15.8 °F -3.7 °F 6.8 °F 68% 29.86 in 1.8 mi WNW 27.6 mph 46.0 mph N/A Snow Light Snow
9:40 AM 15.8 °F -1.9 °F 6.8 °F 68% 29.89 in 5.0 mi WNW 21.9 mph 33.4 mph N/A Snow Light Snow
10:02 AM 15.8 °F -3.7 °F 6.8 °F 68% 29.91 in 4.0 mi West 27.6 mph 41.4 mph N/A Snow Light Snow
10:20 AM 15.8 °F -1.1 °F 6.8 °F 68% 29.94 in 1.5 mi WNW 19.6 mph 41.4 mph N/A Snow Light Snow
10:40 AM 17.6 °F 0.9 °F 6.8 °F 63% 29.96 in 2.0 mi West 20.7 mph 32.2 mph N/A Snow Light Snow
11:00 AM 17.6 °F -0.6 °F 6.8 °F 63% 29.96 in 2.5 mi WNW 25.3 mph 36.8 mph N/A Snow Light Snow
11:21 AM 17.6 °F 0.1 °F 6.8 °F 63% 29.96 in 3.0 mi WNW 23.0 mph 44.9 mph N/A Snow Light Snow
11:40 AM 17.6 °F -1.0 °F 6.8 °F 63% 29.95 in 5.0 mi WNW 26.5 mph 54.1 mph N/A   Clear
12:00 PM 19.4 °F 2.8 °F 6.8 °F 58% 29.95 in 10.0 mi WNW 21.9 mph 42.6 mph N/A   Clear
12:20 PM 19.4 °F 1.8 °F 6.8 °F 58% 29.94 in 10.0 mi WNW 25.3 mph 46.0 mph N/A   Clear
12:40 PM 19.4 °F 2.5 °F 6.8 °F 58% 29.94 in 10.0 mi WNW 23.0 mph 39.1 mph N/A   Clear
1:00 PM 21.2 °F 5.6 °F 6.8 °F 54% 29.95 in 10.0 mi WNW 20.7 mph 43.7 mph N/A   Clear
1:20 PM 21.2 °F 4.5 °F 6.8 °F 54% 29.95 in 10.0 mi NW 24.2 mph 33.4 mph N/A   Clear
1:41 PM 23.0 °F 6.3 °F 3.2 °F 43% 29.94 in 10.0 mi WNW 26.5 mph 42.6 mph N/A   Clear
2:00 PM 24.8 °F 7.9 °F 1.4 °F 36% 29.94 in 10.0 mi WNW 29.9 mph 41.4 mph N/A   Clear
2:20 PM 24.8 °F 9.0 °F 3.2 °F 40% 29.94 in 10.0 mi NW 25.3 mph 52.9 mph N/A   Clear
2:40 PM 24.8 °F 8.4 °F 3.2 °F 40% 29.93 in 10.0 mi NW 27.6 mph 43.7 mph N/A   Clear
3:00 PM 24.8 °F 7.6 °F 3.2 °F 40% 29.93 in 10.0 mi WNW 31.1 mph 47.2 mph N/A   Clear
3:20 PM 24.8 °F 7.9 °F 3.2 °F 40% 29.94 in 10.0 mi NW 29.9 mph 47.2 mph N/A   Clear
3:41 PM 24.8 °F 10.0 °F 3.2 °F 40% 29.93 in 10.0 mi NW 21.9 mph 43.7 mph N/A   Clear
4:00 PM 24.8 °F 8.4 °F 3.2 °F 40% 29.94 in 10.0 mi NW 27.6 mph 43.7 mph N/A   Clear
4:20 PM 24.8 °F 8.4 °F 3.2 °F 40% 29.94 in 10.0 mi NW 27.6 mph 44.9 mph N/A   Clear
4:40 PM 24.8 °F 7.1 °F 3.2 °F 40% 29.94 in 10.0 mi WNW 33.4 mph 46.0 mph N/A   Clear
5:00 PM 24.8 °F 8.1 °F 3.2 °F 40% 29.95 in 10.0 mi WNW 28.8 mph 46.0 mph N/A   Clear
5:20 PM 24.8 °F 7.9 °F 1.4 °F 36% 29.95 in 10.0 mi WNW 29.9 mph 47.2 mph N/A   Clear
5:40 PM 23.0 °F 6.3 °F 3.2 °F 43% 29.97 in 10.0 mi WNW 26.5 mph 41.4 mph N/A   Clear
6:01 PM 23.0 °F 4.4 °F 3.2 °F 43% 29.97 in 10.0 mi WNW 34.5 mph 48.3 mph N/A   Clear
6:20 PM 23.0 °F 5.1 °F 1.4 °F 39% 29.97 in 10.0 mi NW 31.1 mph 44.9 mph N/A   Clear
6:40 PM 23.0 °F 9.6 °F -0.4 °F 36% 29.99 in 10.0 mi WNW 16.1 mph 41.4 mph N/A   Clear
7:00 PM 21.2 °F 4.2 °F 3.2 °F 46% 29.98 in 10.0 mi WNW 25.3 mph 40.3 mph N/A   Clear
7:21 PM 21.2 °F 3.9 °F 3.2 °F 46% 29.98 in 10.0 mi NW 26.5 mph 41.4 mph N/A   Clear
7:40 PM 21.2 °F 3.9 °F 3.2 °F 46% 29.98 in 10.0 mi WNW 26.5 mph 36.8 mph N/A   Clear
8:00 PM 23.0 °F 7.2 °F 3.2 °F 43% 29.98 in 10.0 mi WNW 23.0 mph 36.8 mph N/A   Clear
8:20 PM 24.8 °F 10.0 °F 1.4 °F 36% 29.98 in 10.0 mi WNW 21.9 mph 35.7 mph N/A   Clear
8:41 PM 24.8 °F 12.9 °F 1.4 °F 36% 29.99 in 10.0 mi WNW 13.8 mph 35.7 mph N/A   Clear
9:00 PM 24.8 °F 10.0 °F 3.2 °F 40% 29.99 in 10.0 mi WNW 21.9 mph 35.7 mph N/A   Clear
9:20 PM 23.0 °F 9.2 °F 3.2 °F 43% 30.00 in 10.0 mi WNW 17.3 mph 36.8 mph N/A   Clear
9:40 PM 21.2 °F 8.9 °F 3.2 °F 46% 30.01 in 10.0 mi WNW 12.7 mph 23.0 mph N/A   Clear
10:00 PM 21.2 °F 14.9 °F 3.2 °F 46% 30.01 in 10.0 mi WNW 4.6 mph 24.2 mph N/A   Clear
10:20 PM 21.2 °F 10.1 °F 5.0 °F 50% 30.01 in 10.0 mi WNW 10.4 mph 21.9 mph N/A   Clear
10:40 PM 23.0 °F 8.0 °F 3.2 °F 43% 30.00 in 10.0 mi West 20.7 mph 44.9 mph N/A   Clear
11:00 PM 23.0 °F 6.3 °F 3.2 °F 43% 30.00 in 10.0 mi West 26.5 mph 35.7 mph N/A   Clear
11:20 PM 23.0 °F 5.1 °F 3.2 °F 43% 29.98 in 10.0 mi West 31.1 mph 46.0 mph N/A   Clear
11:40 PM 24.8 °F 8.4 °F 3.2 °F 40% 29.98 in 10.0 mi WNW 27.6 mph 44.9 mph N/A   Clear